This is the latest recevied weather packets stored in our database for station/object KC1TEM-13. If no packets are shown the sender has not sent any weather packets the latest 1 day(s).
| Time | Temp. | Humidity | Pressure | Rain* | Wind** | Luminosity | Snow |
|---|---|---|---|---|---|---|---|
| 1778074376 | 18.89° C | 66% | 1009.5 hPa | 0 mm | - | 231 W/m² | - |
| 1778073770 | 18.89° C | 66% | 1009.5 hPa | 0 mm | - | 187 W/m² | - |
| 1778071046 | 18.89° C | 67% | 1009.6 hPa | 0 mm | - | 160 W/m² | - |
| 1778070441 | 18.89° C | 66% | 1009.6 hPa | 0 mm | - | 102 W/m² | - |
| 1778068928 | 17.78° C | 70% | 1009.8 hPa | 0 mm | - | 94 W/m² | - |
| 1778068626 | 17.78° C | 70% | 1009.9 hPa | 0 mm | - | 99 W/m² | - |
| 1778068021 | 17.78° C | 70% | 1009.8 hPa | 0 mm | - | 101 W/m² | - |
| 1778067417 | 17.78° C | 70% | 1009.9 hPa | 0 mm | - | 97 W/m² | - |
| 1778067114 | 17.22° C | 70% | 1009.7 hPa | 0 mm | - | 79 W/m² | - |
| 1778066508 | 17.22° C | 70% | 1010 hPa | 0 mm | - | 117 W/m² | - |
| 1778066205 | 17.22° C | 71% | 1009.8 hPa | 0 mm | - | 96 W/m² | - |
| 1778065297 | 16.67° C | 72% | 1010.1 hPa | 0 mm | - | 96 W/m² | - |
| 1778064389 | 16.67° C | 72% | 1010 hPa | 0 mm | - | 31 W/m² | - |
| 1778064086 | 16.67° C | 72% | 1009.8 hPa | 0 mm | - | 33 W/m² | - |
| 1778063480 | 16.67° C | 72% | 1009.9 hPa | 0 mm | - | 44 W/m² | - |
| 1778062875 | 16.67° C | 72% | 1010 hPa | 0 mm | - | 30 W/m² | - |
| 1778062572 | 16.67° C | 72% | 1010.1 hPa | 0 mm | - | 17 W/m² | - |
| 1778060455 | 16.67° C | 71% | 1009.9 hPa | 0 mm | - | 6 W/m² | - |
| 1778060153 | 16.67° C | 71% | 1010.1 hPa | 0 mm | - | 4 W/m² | - |
| 1778059850 | 16.67° C | 71% | 1010 hPa | 0 mm | - | 2 W/m² | - |
| 1778059548 | 16.67° C | 71% | 1009.9 hPa | 0 mm | - | 1 W/m² | - |
| 1778058943 | 16.67° C | 71% | 1009.9 hPa | 0 mm | - | 0 W/m² | - |
| 1778057427 | 16.67° C | 69% | 1009.8 hPa | 0 mm | - | 0 W/m² | - |
| 1778057124 | 17.22° C | 69% | 1009.9 hPa | 0 mm | - | 0 W/m² | - |
| 1778056820 | 17.22° C | 68% | 1009.8 hPa | 0 mm | - | 0 W/m² | - |
* Rain latest hour (hover to see other rain measurements)
** Current wind speed in m/s (hover to see current wind gust speed)